This is the latest recevied weather packets stored in our database for station/object N9CQL. If no packets are shown the sender has not sent any weather packets the latest 10 day(s).
| Time | Temp. | Humidity | Pressure | Rain* | Wind** | Luminosity | Snow |
|---|---|---|---|---|---|---|---|
| 1777431917 | 13.89° C | 78% | 1012.2 hPa | 0 mm | - | 0 W/m² | - |
| 1777431615 | 13.33° C | 79% | 1012.3 hPa | 0 mm | - | 0 W/m² | - |
| 1777431310 | 13.33° C | 80% | 1012.3 hPa | 0 mm | - | 0 W/m² | - |
| 1777431006 | 12.78° C | 81% | 1012.2 hPa | 0 mm | - | 0 W/m² | - |
| 1777430703 | 12.78° C | 81% | 1012.3 hPa | 0 mm | - | 0 W/m² | - |
| 1777430397 | 12.78° C | 82% | 1012.2 hPa | 0 mm | - | 0 W/m² | - |
| 1777430093 | 12.78° C | 82% | 1012.2 hPa | 0 mm | - | 0 W/m² | - |
| 1777429789 | 12.78° C | 81% | 1011.9 hPa | 0 mm | - | 0 W/m² | - |
| 1777429485 | 12.78° C | 81% | 1012.1 hPa | 0 mm | - | 0 W/m² | - |
| 1777429181 | 12.78° C | 81% | 1011.9 hPa | 0 mm | - | 0 W/m² | - |
| 1777428878 | 12.22° C | 81% | 1012 hPa | 0 mm | - | 0 W/m² | - |
| 1777428574 | 12.22° C | 81% | 1011.9 hPa | 0 mm | - | 0 W/m² | - |
| 1777428270 | 12.78° C | 80% | 1012 hPa | 0 mm | - | 0 W/m² | - |
| 1777427965 | 12.78° C | 79% | 1012 hPa | 0 mm | - | 0 W/m² | - |
| 1777427662 | 12.78° C | 79% | 1012.1 hPa | 0 mm | - | 0 W/m² | - |
| 1777427358 | 12.78° C | 78% | 1011.7 hPa | 0 mm | - | 0 W/m² | - |
| 1777427050 | 13.33° C | 77% | 1011.7 hPa | 0 mm | - | 0 W/m² | - |
| 1777426747 | 13.33° C | 76% | 1011.8 hPa | 0 mm | - | 0 W/m² | - |
| 1777426443 | 13.33° C | 76% | 1011.5 hPa | 0 mm | - | 0 W/m² | - |
| 1777426139 | 13.89° C | 75% | 1011.5 hPa | 0 mm | - | 0 W/m² | - |
| 1777425833 | 13.89° C | 74% | 1011.4 hPa | 0 mm | - | 0 W/m² | - |
| 1777425529 | 13.89° C | 73% | 1011.2 hPa | 0 mm | - | 0 W/m² | - |
| 1777425224 | 14.44° C | 73% | 1011.2 hPa | 0 mm | - | 0 W/m² | - |
| 1777424922 | 14.44° C | 72% | 1011.3 hPa | 0 mm | - | 0 W/m² | - |
| 1777424618 | 15° C | 70% | 1011.2 hPa | 0 mm | - | 0 W/m² | - |
* Rain latest hour (hover to see other rain measurements)
** Current wind speed in m/s (hover to see current wind gust speed)